Regional Weather Roundup
Issued by NWS Green Bay, WI

Home | Current Version | Previous Version | Text Only | Print | Product List | Glossary Off
Versions: 1 2 3 4 5 6 7 8 9 10 11 12 13 14 15 16 17 18 19 20 21 22 23 24 25 26 27 28 29 30 31 32 33 34 35 36 37 38 39 40 41 42 43 44 45 46 47 48 49 50

000
ASUS43 KGRB 231611
RWRGRB

NORTH-CENTRAL AND NORTHEAST WISCONSIN REGIONAL WEATHER ROUNDUP
NATIONAL WEATHER SERVICE GREEN BAY WI
1100 AM CDT FRI JUN 23 2017

WIZ005-009-010>012-018-019-231700-
NORTH CENTRAL WISCONSIN

CITY           SKY/WX    TMP DP  RH WIND       PRES   REMARKS
IRONWOOD       MOSUNNY   65  49  56 W10       29.67S
MANITOWISH WTR MOSUNNY   67  49  52 NW13G18   29.68R
ARBOR VITAE    MOSUNNY   65  49  56 NW12G20   29.68R
EAGLE RIVER    MOSUNNY   67  47  47 W14       29.66R
LAND O LAKES   PTSUNNY   66  46  47 W8G16     29.67S
RHINELANDER    SUNNY     69  50  50 W16G25    29.68S
PHILLIPS       MOSUNNY   65  50  57 W8        29.70R
ANTIGO         SUNNY     69  54  58 W14       29.68F
TOMAHAWK       NOT AVBL
MERRILL        SUNNY     69  52  54 NW12      29.68F
$$

WIZ013-073-231700-
NORTHEAST WISCONSIN

CITY           SKY/WX    TMP DP  RH WIND       PRES   REMARKS
IRON MOUNTAIN  SUNNY     74  47  38 W13G22    29.61S
MARINETTE      PTSUNNY   74  53  48 VRB7      29.63F
OCONTO         MOSUNNY   75  54  47 W9        29.64S
$$

WIZ017-030-035>037-045-231700-
CENTRAL WISCONSIN

CITY           SKY/WX    TMP DP  RH WIND       PRES   REMARKS
MEDFORD        SUNNY     66  51  59 W14       29.70F
WAUSAU         SUNNY     71  54  54 W13       29.67F
MOSINEE          N/A     72  54  53 W13G18    29.70F
MARSHFIELD     SUNNY     69  54  58 W13G21    29.70F
WISC RAPIDS    SUNNY     75  58  55 W13G20    29.71F
STEVENS POINT  SUNNY     71  53  53 W13G18    29.70F
WAUPACA        MOSUNNY   75  58  54 W8        29.69F
SHAWANO        MOSUNNY   76  57  51 SW8       29.66F
CLINTONVILLE   CLOUDY    73  54  49 W7        29.66F
WAUTOMA        SUNNY     74  62  66 SW7       29.70F
$$

WIZ038-039-048-051-231700-
FOX VALLEY

CITY           SKY/WX    TMP DP  RH WIND       PRES   REMARKS
NWS GREEN BAY  MOSUNNY   76  61  59 W9        29.66S
APPLETON       MOSUNNY   72  57  60 SW8       29.67F
OSHKOSH        MOSUNNY   73  58  59 VRB5      29.68F
FOND DU LAC    CLOUDY    74  54  49 W6        29.70S
$$

WIZ022-050-052-231700-
EAST CENTRAL WISCONSIN

CITY           SKY/WX    TMP DP  RH WIND       PRES   REMARKS
EPHRAIM        FAIR      69  61  75 SW6       29.63S
WASHINGTON ISL FAIR      67  61  80 SW8       29.62S
STURGEON BAY     N/A     72  56  57 W9          N/A
MANITOWOC      MOSUNNY   75  54  47 W10       29.67F
SHEBOYGAN      MOSUNNY   74  54  49 NW7       29.68F
$$

LMZ563-521-522-541>543-231700-
LAKESHORE

STATION/POSITION TIME  TEMP    WIND        PRES    VSBY  WAVE
                       AIR SEA DIR/SP/G                  HT/PER
                 (UTC) (F)     (DEG/KT/KT) (MB)    (MI)  (FT/S)
SHEBOYGAN LKSHOR 1600   73     290/ 12/ 14 1004.4F
KEWAUNEE LKSHORE 1548   73     270/  6/  8 1004.0S
NORTHPORT PIER   1540   72     210/  3/  7 1003.4R
N MID LAKE BUOY  1550   60 56  230/  6/  8 1003.9R         1
S GREEN BAY BUOY 1600   69     210/  8/  8 1003.8
CHAMBERS ISLAND  1540   69     170/  6/ 10 1003.4S
MENOMINEE LKSHOR 1548          260/  9/ 14 1002.8F
$$




USA.gov is the U.S. government's official web portal to all federal, state and local government web resources and services.